| time (UTC) | temp F | wind direction | speed MPH | gust MPH | rain 1hr in | rain 24hr in | rain mn in | humidity % | barometer mb |
| 20260508193709 | 59 | 245 | 6.0 | 6.0 | 0.00 | 0.00 | 0.08 | 39 | 1011.0 |
| 20260508193210 | 59 | 245 | 1.0 | 6.0 | 0.00 | 0.00 | 0.08 | 44 | 1012.0 |
| 20260508192709 | 59 | 245 | 2.0 | 4.0 | 0.00 | 0.00 | 0.08 | 42 | 1012.0 |
| 20260508192209 | 60 | 245 | 2.0 | 4.0 | 0.00 | 0.00 | 0.08 | 43 | 1012.0 |
| 20260508191709 | 59 | 245 | 4.0 | 5.0 | 0.00 | 0.00 | 0.08 | 43 | 1012.0 |
| 20260508191209 | 59 | 245 | 2.0 | 3.0 | 0.00 | 0.00 | 0.08 | 44 | 1012.0 |
| 20260508190709 | 59 | 245 | 8.0 | 8.0 | 0.00 | 0.00 | 0.08 | 43 | 1012.0 |
| 20260508190210 | 59 | 245 | 5.0 | 6.0 | 0.00 | 0.00 | 0.08 | 44 | 1012.0 |
| 20260508185709 | 58 | 245 | 1.0 | 5.0 | 0.00 | 0.00 | 0.08 | 45 | 1012.0 |
| 20260508185210 | 57 | 245 | 3.0 | 5.0 | 0.00 | 0.00 | 0.08 | 47 | 1012.0 |
| 20260508184710 | 58 | 245 | 4.0 | 6.0 | 0.00 | 0.00 | 0.08 | 47 | 1012.0 |
| 20260508184209 | 58 | 245 | 3.0 | 6.0 | 0.00 | 0.00 | 0.08 | 45 | 1012.0 |
| 20260508183710 | 58 | 245 | 3.0 | 4.0 | 0.00 | 0.00 | 0.08 | 48 | 1012.0 |
| 20260508183209 | 58 | 245 | 4.0 | 6.0 | 0.00 | 0.00 | 0.08 | 48 | 1012.0 |
| 20260508182709 | 57 | 245 | 1.0 | 1.0 | 0.00 | 0.00 | 0.08 | 51 | 1012.0 |
| 20260508182209 | 58 | 245 | 7.0 | 7.0 | 0.00 | 0.00 | 0.08 | 48 | 1012.0 |
| 20260508181710 | 58 | 245 | 2.0 | 3.0 | 0.00 | 0.00 | 0.08 | 48 | 1012.0 |
| 20260508181209 | 58 | 245 | 3.0 | 4.0 | 0.00 | 0.00 | 0.08 | 54 | 1012.0 |
| 20260508180709 | 57 | 245 | 3.0 | 4.0 | 0.00 | 0.00 | 0.08 | 54 | 1012.0 |
| 20260508180211 | 57 | 245 | 4.0 | 4.0 | 0.00 | 0.00 | 0.08 | 49 | 1012.0 |
| 20260508175710 | 58 | 245 | 2.0 | 3.0 | 0.00 | 0.00 | 0.08 | 54 | 1012.0 |
| 20260508175209 | 57 | 245 | 2.0 | 5.0 | 0.00 | 0.00 | 0.08 | 52 | 1012.0 |
| 20260508174709 | 56 | 245 | 2.0 | 4.0 | 0.00 | 0.00 | 0.08 | 52 | 1012.0 |
| 20260508174209 | 56 | 245 | 3.0 | 6.0 | 0.00 | 0.00 | 0.08 | 55 | 1012.0 |
| 20260508173711 | 55 | 245 | 3.0 | 6.0 | 0.00 | 0.00 | 0.08 | 57 | 1012.0 |
| 20260508173212 | 55 | 245 | 5.0 | 6.0 | 0.00 | 0.00 | 0.08 | 54 | 1012.0 |
| 20260508172711 | 56 | 245 | 3.0 | 6.0 | 0.00 | 0.00 | 0.08 | 55 | 1013.0 |
| 20260508172211 | 57 | 245 | 4.0 | 6.0 | 0.00 | 0.00 | 0.08 | 53 | 1013.0 |
| 20260508171710 | 57 | 245 | 2.0 | 3.0 | 0.00 | 0.00 | 0.08 | 54 | 1013.0 |
| 20260508171210 | 57 | 245 | 1.0 | 4.0 | 0.00 | 0.00 | 0.08 | 55 | 1013.0 |
| 20260508170712 | 57 | 245 | 4.0 | 4.0 | 0.00 | 0.00 | 0.08 | 54 | 1013.0 |
| 20260508170211 | 56 | 245 | 2.0 | 3.0 | 0.00 | 0.00 | 0.08 | 55 | 1013.0 |
| 20260508165710 | 56 | 245 | 4.0 | 6.0 | 0.00 | 0.00 | 0.08 | 55 | 1013.0 |
| 20260508165211 | 56 | 245 | 2.0 | 4.0 | 0.00 | 0.00 | 0.08 | 56 | 1013.0 |
| 20260508164712 | 56 | 245 | 4.0 | 4.0 | 0.00 | 0.00 | 0.08 | 59 | 1013.0 |
| 20260508164211 | 55 | 245 | 4.0 | 4.0 | 0.00 | 0.00 | 0.08 | 58 | 1013.0 |
| 20260508163709 | 55 | 245 | 3.0 | 5.0 | 0.00 | 0.00 | 0.08 | 59 | 1013.0 |
| 20260508163211 | 55 | 245 | 2.0 | 3.0 | 0.00 | 0.00 | 0.08 | 60 | 1013.0 |
| 20260508162710 | 54 | 245 | 4.0 | 4.0 | 0.00 | 0.00 | 0.08 | 58 | 1013.0 |
| 20260508162216 | 54 | 245 | 0.0 | 3.0 | 0.00 | 0.00 | 0.08 | 60 | 1013.0 |
| 20260508161711 | 56 | 245 | 3.0 | 5.0 | 0.00 | 0.00 | 0.08 | 56 | 1013.0 |
| 20260508161212 | 55 | 245 | 2.0 | 3.0 | 0.00 | 0.00 | 0.08 | 62 | 1013.0 |
| 20260508160713 | 54 | 245 | 3.0 | 5.0 | 0.00 | 0.00 | 0.08 | 59 | 1013.0 |
| 20260508160210 | 55 | 245 | 1.0 | 1.0 | 0.00 | 0.00 | 0.08 | 62 | 1013.0 |
| 20260508155710 | 54 | 245 | 2.0 | 6.0 | 0.00 | 0.00 | 0.08 | 64 | 1013.0 |
| 20260508155214 | 54 | 245 | 1.0 | 7.0 | 0.00 | 0.00 | 0.08 | 62 | 1013.0 |
| 20260508154709 | 55 | 245 | 2.0 | 6.0 | 0.00 | 0.00 | 0.08 | 60 | 1013.0 |
| 20260508154209 | 55 | 245 | 4.0 | 4.0 | 0.00 | 0.00 | 0.08 | 61 | 1013.0 |
| 20260508153710 | 54 | 245 | 2.0 | 2.0 | 0.00 | 0.00 | 0.08 | 62 | 1013.0 |
| 20260508153215 | 54 | 245 | 2.0 | 2.0 | 0.00 | 0.00 | 0.08 | 62 | 1013.0 |
| 20260508152711 | 54 | 245 | 0.0 | 4.0 | 0.00 | 0.00 | 0.08 | 66 | 1013.0 |
| 20260508152210 | 54 | 245 | 4.0 | 6.0 | 0.00 | 0.00 | 0.08 | 64 | 1013.0 |
| 20260508151710 | 53 | 245 | 1.0 | 4.0 | 0.00 | 0.00 | 0.08 | 66 | 1013.0 |
| 20260508151210 | 52 | 245 | 0.0 | 3.0 | 0.00 | 0.00 | 0.08 | 65 | 1013.0 |
| 20260508150709 | 53 | 245 | 5.0 | 5.0 | 0.00 | 0.00 | 0.08 | 69 | 1013.0 |
| 20260508150213 | 51 | 245 | 1.0 | 3.0 | 0.00 | 0.00 | 0.08 | 68 | 1013.0 |
| 20260508145712 | 51 | 245 | 1.0 | 6.0 | 0.00 | 0.00 | 0.08 | 69 | 1013.0 |
| 20260508145209 | 50 | 245 | 3.0 | 4.0 | 0.00 | 0.00 | 0.08 | 72 | 1013.0 |
| 20260508144710 | 50 | 245 | 3.0 | 4.0 | 0.00 | 0.00 | 0.08 | 71 | 1013.0 |
| 20260508144210 | 50 | 245 | 3.0 | 3.0 | 0.00 | 0.00 | 0.08 | 73 | 1013.0 |
| 20260508143710 | 50 | 245 | 3.0 | 5.0 | 0.00 | 0.00 | 0.08 | 72 | 1013.0 |
| 20260508143210 | 50 | 245 | 2.0 | 3.0 | 0.00 | 0.00 | 0.08 | 74 | 1013.0 |
| 20260508142709 | 50 | 245 | 0.0 | 2.0 | 0.00 | 0.00 | 0.08 | 74 | 1013.0 |
| 20260508142209 | 49 | 245 | 0.0 | 0.0 | 0.00 | 0.00 | 0.08 | 77 | 1013.0 |
| 20260508141712 | 48 | 245 | 2.0 | 3.0 | 0.00 | 0.00 | 0.08 | 78 | 1013.0 |
| 20260508141209 | 48 | 245 | 1.0 | 2.0 | 0.00 | 0.00 | 0.08 | 77 | 1013.0 |
| 20260508140715 | 48 | 245 | 0.0 | 1.0 | 0.00 | 0.00 | 0.08 | 76 | 1013.0 |
| 20260508140210 | 48 | 245 | 1.0 | 2.0 | 0.00 | 0.00 | 0.08 | 78 | 1013.0 |
| 20260508135710 | 48 | 245 | 1.0 | 4.0 | 0.00 | 0.00 | 0.08 | 78 | 1013.0 |
| 20260508135209 | 47 | 245 | 2.0 | 3.0 | 0.00 | 0.00 | 0.08 | 82 | 1013.0 |
| 20260508134710 | 46 | 245 | 0.0 | 0.0 | 0.00 | 0.00 | 0.08 | 86 | 1013.0 |
| 20260508134209 | 46 | 245 | 0.0 | 0.0 | 0.01 | 0.00 | 0.08 | 85 | 1013.0 |
| 20260508133710 | 45 | 245 | 0.0 | 1.0 | 0.01 | 0.00 | 0.08 | 88 | 1013.0 |
| 20260508133209 | 45 | 245 | 1.0 | 1.0 | 0.01 | 0.00 | 0.08 | 90 | 1013.0 |
| 20260508132709 | 44 | 245 | 0.0 | 1.0 | 0.01 | 0.00 | 0.08 | 91 | 1013.0 |
| 20260508132210 | 44 | 245 | 0.0 | 0.0 | 0.01 | 0.00 | 0.08 | 92 | 1013.0 |
| 20260508131711 | 43 | 245 | 0.0 | 0.0 | 0.01 | 0.00 | 0.08 | 93 | 1013.0 |
| 20260508131209 | 43 | 245 | 0.0 | 3.0 | 0.01 | 0.00 | 0.08 | 92 | 1013.0 |
| 20260508130709 | 43 | 245 | 0.0 | 1.0 | 0.01 | 0.00 | 0.08 | 92 | 1013.0 |
| 20260508130210 | 42 | 245 | 0.0 | 1.0 | 0.01 | 0.00 | 0.08 | 92 | 1013.0 |
| 20260508125709 | 42 | 245 | 0.0 | 1.0 | 0.01 | 0.00 | 0.08 | 92 | 1013.0 |
| 20260508125209 | 42 | 245 | 0.0 | 1.0 | 0.01 | 0.00 | 0.08 | 92 | 1013.0 |
| 20260508124709 | 42 | 245 | 0.0 | 1.0 | 0.00 | 0.00 | 0.07 | 92 | 1013.0 |
| 20260508124209 | 42 | 245 | 1.0 | 1.0 | 0.00 | 0.00 | 0.07 | 92 | 1013.0 |
| 20260508123709 | 42 | 245 | 0.0 | 1.0 | 0.00 | 0.00 | 0.07 | 92 | 1013.0 |
| 20260508123209 | 42 | 245 | 0.0 | 0.0 | 0.00 | 0.00 | 0.07 | 92 | 1013.0 |
| 20260508122709 | 42 | 245 | 0.0 | 1.0 | 0.01 | 0.00 | 0.07 | 93 | 1013.0 |
| 20260508122209 | 42 | 245 | 1.0 | 1.0 | 0.01 | 0.00 | 0.07 | 93 | 1013.0 |
| 20260508121709 | 42 | 245 | 0.0 | 1.0 | 0.02 | 0.00 | 0.07 | 93 | 1013.0 |
| 20260508121211 | 42 | 245 | 0.0 | 1.0 | 0.02 | 0.00 | 0.07 | 92 | 1013.0 |
| 20260508120710 | 41 | 245 | 0.0 | 0.0 | 0.04 | 0.00 | 0.07 | 92 | 1013.0 |
| 20260508120210 | 41 | 245 | 1.0 | 1.0 | 0.05 | 0.00 | 0.07 | 92 | 1013.0 |
| 20260508115709 | 41 | 245 | 0.0 | 1.0 | 0.05 | 0.00 | 0.07 | 92 | 1013.0 |
| 20260508115209 | 41 | 245 | 1.0 | 1.0 | 0.05 | 0.00 | 0.07 | 92 | 1013.0 |
| 20260508114709 | 41 | 245 | 1.0 | 3.0 | 0.05 | 0.00 | 0.07 | 91 | 1013.0 |
| 20260508114212 | 41 | 245 | 3.0 | 3.0 | 0.05 | 0.00 | 0.07 | 91 | 1013.0 |
| 20260508113709 | 41 | 245 | 2.0 | 3.0 | 0.05 | 0.00 | 0.07 | 91 | 1013.0 |
| 20260508113211 | 41 | 245 | 1.0 | 5.0 | 0.04 | 0.00 | 0.06 | 90 | 1013.0 |
| 20260508112709 | 41 | 245 | 2.0 | 3.0 | 0.04 | 0.00 | 0.06 | 90 | 1013.0 |
| 20260508112209 | 42 | 245 | 5.0 | 5.0 | 0.04 | 0.00 | 0.06 | 89 | 1013.0 |
| 20260508111709 | 42 | 245 | 3.0 | 6.0 | 0.03 | 0.00 | 0.05 | 88 | 1013.0 |
| 20260508111210 | 42 | 245 | 2.0 | 4.0 | 0.03 | 0.00 | 0.04 | 88 | 1013.0 |
| 20260508110709 | 43 | 245 | 3.0 | 5.0 | 0.02 | 0.00 | 0.03 | 89 | 1013.0 |
| 20260508110210 | 43 | 245 | 2.0 | 2.0 | 0.01 | 0.00 | 0.02 | 88 | 1013.0 |
| 20260508105709 | 43 | 245 | 0.0 | 0.0 | 0.01 | 0.00 | 0.02 | 87 | 1013.0 |
| 20260508105209 | 43 | 245 | 0.0 | 0.0 | 0.01 | 0.00 | 0.02 | 87 | 1012.0 |
| 20260508104709 | 43 | 245 | 0.0 | 0.0 | 0.02 | 0.00 | 0.02 | 87 | 1012.0 |
| 20260508104210 | 43 | 245 | 0.0 | 1.0 | 0.02 | 0.00 | 0.02 | 87 | 1012.0 |
| 20260508103709 | 43 | 245 | 1.0 | 1.0 | 0.02 | 0.00 | 0.02 | 87 | 1012.0 |
| 20260508103209 | 43 | 245 | 1.0 | 2.0 | 0.02 | 0.00 | 0.02 | 87 | 1012.0 |
| 20260508102710 | 43 | 245 | 0.0 | 1.0 | 0.02 | 0.00 | 0.02 | 86 | 1012.0 |
| 20260508102211 | 43 | 245 | 0.0 | 2.0 | 0.02 | 0.00 | 0.02 | 86 | 1012.0 |
| 20260508101710 | 43 | 245 | 0.0 | 1.0 | 0.02 | 0.00 | 0.02 | 86 | 1012.0 |
| 20260508101212 | 43 | 245 | 1.0 | 2.0 | 0.01 | 0.00 | 0.01 | 85 | 1012.0 |
| 20260508100709 | 43 | 245 | 0.0 | 2.0 | 0.01 | 0.00 | 0.01 | 86 | 1012.0 |
| 20260508100210 | 43 | 245 | 0.0 | 0.0 | 0.01 | 0.00 | 0.01 | 85 | 1012.0 |
| 20260508095709 | 43 | 245 | 0.0 | 0.0 | 0.01 | 0.00 | 0.01 | 84 | 1012.0 |
| 20260508095209 | 43 | 245 | 0.0 | 1.0 | 0.01 | 0.00 | 0.01 | 84 | 1012.0 |
| 20260508094709 | 43 | 245 | 1.0 | 1.0 | 0.00 | 0.00 | 0.00 | 84 | 1012.0 |
| 20260508094209 | 43 | 245 | 0.0 | 1.0 | 0.00 | 0.00 | 0.00 | 84 | 1012.0 |
| 20260508093711 | 43 | 245 | 0.0 | 0.0 | 0.00 | 0.00 | 0.00 | 85 | 1012.0 |
| 20260508093209 | 43 | 245 | 0.0 | 0.0 | 0.00 | 0.00 | 0.00 | 85 | 1012.0 |
| 20260508092710 | 44 | 245 | 0.0 | 0.0 | 0.00 | 0.00 | 0.00 | 85 | 1012.0 |
| 20260508092209 | 44 | 245 | 0.0 | 0.0 | 0.00 | 0.00 | 0.00 | 85 | 1012.0 |
| 20260508091709 | 44 | 245 | 0.0 | 0.0 | 0.00 | 0.00 | 0.00 | 85 | 1012.0 |
| 20260508091209 | 44 | 245 | 0.0 | 1.0 | 0.00 | 0.00 | 0.00 | 85 | 1012.0 |
| 20260508090709 | 44 | 245 | 0.0 | 1.0 | 0.00 | 0.00 | 0.00 | 85 | 1012.0 |
| 20260508090209 | 44 | 245 | 1.0 | 1.0 | 0.00 | 0.00 | 0.00 | 85 | 1012.0 |
| 20260508085709 | 44 | 245 | 0.0 | 1.0 | 0.00 | 0.00 | 0.00 | 84 | 1012.0 |
| 20260508085210 | 44 | 245 | 0.0 | 1.0 | 0.00 | 0.00 | 0.00 | 83 | 1012.0 |
| 20260508084709 | 44 | 245 | 1.0 | 1.0 | 0.00 | 0.00 | 0.00 | 83 | 1012.0 |
| 20260508084209 | 44 | 245 | 0.0 | 0.0 | 0.00 | 0.00 | 0.00 | 83 | 1012.0 |
| 20260508083709 | 44 | 245 | 0.0 | 2.0 | 0.00 | 0.00 | 0.00 | 83 | 1012.0 |
| 20260508083209 | 44 | 245 | 0.0 | 2.0 | 0.00 | 0.00 | 0.00 | 84 | 1012.0 |
| 20260508082710 | 44 | 245 | 1.0 | 2.0 | 0.00 | 0.00 | 0.00 | 85 | 1012.0 |
| 20260508082210 | 44 | 245 | 0.0 | 2.0 | 0.00 | 0.00 | 0.00 | 85 | 1012.0 |
| 20260508081710 | 44 | 245 | 2.0 | 6.0 | 0.00 | 0.00 | 0.00 | 86 | 1012.0 |
| 20260508081210 | 44 | 245 | 6.0 | 6.0 | 0.00 | 0.00 | 0.00 | 89 | 1012.0 |
| 20260508080710 | 44 | 245 | 1.0 | 5.0 | 0.00 | 0.00 | 0.00 | 91 | 1012.0 |
| 20260508080212 | 44 | 245 | 2.0 | 6.0 | 0.00 | 0.00 | 0.00 | 92 | 1012.0 |
| 20260508075709 | 44 | 245 | 5.0 | 5.0 | 0.00 | 0.00 | 0.00 | 93 | 1012.0 |
| 20260508075209 | 44 | 245 | 2.0 | 5.0 | 0.00 | 0.00 | 0.00 | 93 | 1012.0 |
| 20260508074709 | 44 | 245 | 2.0 | 4.0 | 0.00 | 0.00 | 0.00 | 93 | 1012.0 |
| 20260508074209 | 44 | 245 | 2.0 | 2.0 | 0.00 | 0.00 | 0.00 | 94 | 1012.0 |
| 20260508073709 | 43 | 245 | 1.0 | 1.0 | 0.00 | 0.00 | 0.00 | 94 | 1012.0 |
| 20260508073209 | 43 | 245 | 2.0 | 2.0 | 0.00 | 0.00 | 0.00 | 94 | 1012.0 |
| 20260508072710 | 43 | 245 | 0.0 | 4.0 | 0.00 | 0.00 | 0.00 | 95 | 1012.0 |
| 20260508072209 | 43 | 245 | 0.0 | 2.0 | 0.00 | 0.00 | 0.00 | 95 | 1012.0 |
| 20260508071710 | 43 | 245 | 0.0 | 2.0 | 0.00 | 0.00 | 0.00 | 96 | 1012.0 |
| 20260508071209 | 43 | 245 | 0.0 | 0.0 | 0.00 | 0.00 | 0.00 | 96 | 1012.0 |
| 20260508070709 | 43 | 245 | 0.0 | 0.0 | 0.00 | 0.00 | 0.00 | 96 | 1012.0 |
| 20260508070209 | 43 | 245 | 0.0 | 0.0 | 0.00 | 0.00 | 0.00 | 96 | 1012.0 |
| 20260508065710 | 43 | 245 | 1.0 | 2.0 | 0.00 | 0.00 | 0.00 | 96 | 1012.0 |
| 20260508065210 | 42 | 245 | 1.0 | 1.0 | 0.00 | 0.00 | 0.00 | 96 | 1012.0 |
| 20260508064710 | 42 | 245 | 1.0 | 2.0 | 0.00 | 0.00 | 0.00 | 97 | 1012.0 |
| 20260508064209 | 42 | 245 | 0.0 | 1.0 | 0.00 | 0.00 | 0.00 | 97 | 1012.0 |
| 20260508063710 | 42 | 245 | 2.0 | 3.0 | 0.00 | 0.00 | 0.00 | 97 | 1012.0 |
| 20260508063212 | 42 | 245 | 0.0 | 1.0 | 0.00 | 0.00 | 0.00 | 97 | 1012.0 |
| 20260508062710 | 42 | 245 | 0.0 | 2.0 | 0.00 | 0.00 | 0.00 | 97 | 1012.0 |
| 20260508062210 | 42 | 245 | 0.0 | 2.0 | 0.00 | 0.00 | 0.00 | 97 | 1012.0 |
| 20260508061709 | 42 | 245 | 0.0 | 0.0 | 0.00 | 0.00 | 0.00 | 97 | 1012.0 |
| 20260508061209 | 42 | 245 | 1.0 | 1.0 | 0.00 | 0.00 | 0.00 | 97 | 1012.0 |
| 20260508060709 | 42 | 245 | 0.0 | 1.0 | 0.00 | 0.00 | 0.00 | 97 | 1012.0 |
| 20260508060210 | 41 | 245 | 1.0 | 1.0 | 0.00 | 0.00 | 0.00 | 97 | 1012.0 |
| 20260508055710 | 41 | 245 | 0.0 | 0.0 | 0.00 | 0.00 | 0.00 | 97 | 1012.0 |
| 20260508055210 | 41 | 245 | 1.0 | 1.0 | 0.00 | 0.00 | 0.00 | 97 | 1012.0 |
| 20260508054709 | 41 | 245 | 0.0 | 0.0 | 0.00 | 0.00 | 0.00 | 97 | 1012.0 |
| 20260508053721 | 41 | 245 | 0.0 | 1.0 | 0.00 | 0.00 | 0.00 | 97 | 1012.0 |
| 20260508053209 | 41 | 245 | 0.0 | 1.0 | 0.00 | 0.00 | 0.00 | 97 | 1013.0 |
| 20260508052709 | 41 | 245 | 1.0 | 1.0 | 0.00 | 0.00 | 0.00 | 97 | 1013.0 |
| 20260508052210 | 41 | 245 | 0.0 | 0.0 | 0.00 | 0.00 | 0.00 | 97 | 1012.0 |
| 20260508051709 | 40 | 245 | 0.0 | 0.0 | 0.00 | 0.00 | 0.00 | 97 | 1012.0 |
| 20260508051209 | 40 | 245 | 0.0 | 0.0 | 0.00 | 0.00 | 0.00 | 97 | 1013.0 |
| 20260508050709 | 40 | 245 | 0.0 | 0.0 | 0.00 | 0.00 | 0.00 | 97 | 1013.0 |
| 20260508050210 | 41 | 245 | 0.0 | 0.0 | 0.00 | 0.00 | 0.00 | 97 | 1013.0 |
| 20260508045710 | 41 | 245 | 0.0 | 0.0 | 0.00 | 0.00 | 0.00 | 96 | 1013.0 |
| 20260508045210 | 40 | 245 | 0.0 | 0.0 | 0.00 | 0.00 | 0.00 | 96 | 1013.0 |
| 20260508044709 | 40 | 245 | 0.0 | 0.0 | 0.00 | 0.00 | 0.00 | 96 | 1013.0 |
| 20260508044211 | 41 | 245 | 0.0 | 0.0 | 0.00 | 0.00 | 0.00 | 96 | 1013.0 |
| 20260508043709 | 40 | 245 | 0.0 | 0.0 | 0.00 | 0.00 | 0.00 | 96 | 1013.0 |
| 20260508043209 | 40 | 245 | 0.0 | 0.0 | 0.00 | 0.00 | 0.00 | 96 | 1013.0 |
| 20260508042709 | 40 | 245 | 0.0 | 0.0 | 0.00 | 0.00 | 0.00 | 95 | 1013.0 |
| 20260508042209 | 41 | 245 | 0.0 | 0.0 | 0.00 | 0.00 | 0.00 | 95 | 1013.0 |
| 20260508041709 | 41 | 245 | 0.0 | 0.0 | 0.00 | 0.00 | 0.00 | 95 | 1013.0 |
| 20260508041209 | 41 | 245 | 0.0 | 0.0 | 0.00 | 0.00 | 0.00 | 95 | 1013.0 |
| 20260508040709 | 41 | 245 | 0.0 | 0.0 | 0.00 | 0.00 | 0.00 | 95 | 1013.0 |
| 20260508040210 | 41 | 245 | 0.0 | 0.0 | 0.00 | 0.00 | 0.05 | 95 | 1013.0 |
| 20260508035709 | 41 | 245 | 0.0 | 0.0 | 0.00 | 0.00 | 0.05 | 94 | 1013.0 |
| 20260508035209 | 41 | 245 | 0.0 | 0.0 | 0.00 | 0.00 | 0.05 | 94 | 1013.0 |
| 20260508034709 | 41 | 245 | 0.0 | 0.0 | 0.00 | 0.00 | 0.05 | 94 | 1013.0 |
| 20260508034209 | 41 | 245 | 0.0 | 0.0 | 0.00 | 0.00 | 0.05 | 94 | 1013.0 |
| 20260508033710 | 41 | 245 | 0.0 | 0.0 | 0.00 | 0.00 | 0.05 | 93 | 1013.0 |
| 20260508033210 | 41 | 245 | 0.0 | 0.0 | 0.00 | 0.00 | 0.05 | 93 | 1013.0 |
| 20260508032711 | 42 | 245 | 0.0 | 0.0 | 0.00 | 0.00 | 0.05 | 93 | 1013.0 |
| 20260508032209 | 42 | 245 | 0.0 | 0.0 | 0.00 | 0.00 | 0.05 | 93 | 1013.0 |
| 20260508031710 | 42 | 245 | 0.0 | 0.0 | 0.00 | 0.00 | 0.05 | 92 | 1013.0 |
| 20260508031209 | 42 | 245 | 0.0 | 0.0 | 0.00 | 0.00 | 0.05 | 92 | 1013.0 |
| 20260508030710 | 42 | 245 | 0.0 | 0.0 | 0.00 | 0.00 | 0.05 | 92 | 1013.0 |
| 20260508030210 | 42 | 245 | 0.0 | 0.0 | 0.00 | 0.00 | 0.05 | 91 | 1013.0 |
| 20260508025709 | 42 | 245 | 0.0 | 0.0 | 0.00 | 0.00 | 0.05 | 91 | 1013.0 |
| 20260508025209 | 43 | 245 | 0.0 | 0.0 | 0.00 | 0.00 | 0.05 | 91 | 1013.0 |
| 20260508024709 | 43 | 245 | 0.0 | 0.0 | 0.00 | 0.00 | 0.05 | 91 | 1013.0 |
| 20260508024210 | 43 | 245 | 0.0 | 0.0 | 0.00 | 0.00 | 0.05 | 91 | 1013.0 |
| 20260508023709 | 43 | 245 | 0.0 | 1.0 | 0.01 | 0.00 | 0.05 | 90 | 1013.0 |
| 20260508023209 | 43 | 245 | 0.0 | 1.0 | 0.01 | 0.00 | 0.05 | 90 | 1013.0 |
| 20260508022709 | 43 | 245 | 1.0 | 1.0 | 0.01 | 0.00 | 0.05 | 90 | 1012.0 |
| 20260508022209 | 43 | 245 | 0.0 | 1.0 | 0.01 | 0.00 | 0.05 | 90 | 1012.0 |
| 20260508021709 | 44 | 245 | 0.0 | 0.0 | 0.01 | 0.00 | 0.05 | 90 | 1012.0 |
| 20260508021210 | 43 | 245 | 0.0 | 1.0 | 0.01 | 0.00 | 0.05 | 90 | 1012.0 |
| 20260508020711 | 44 | 245 | 2.0 | 2.0 | 0.03 | 0.00 | 0.05 | 90 | 1012.0 |
| 20260508020210 | 44 | 245 | 2.0 | 3.0 | 0.04 | 0.00 | 0.05 | 90 | 1012.0 |
| 20260508015710 | 44 | 245 | 4.0 | 6.0 | 0.05 | 0.00 | 0.05 | 90 | 1012.0 |
| 20260508015210 | 44 | 245 | 3.0 | 3.0 | 0.05 | 0.00 | 0.05 | 90 | 1012.0 |
| 20260508014709 | 44 | 245 | 4.0 | 4.0 | 0.05 | 0.00 | 0.05 | 90 | 1012.0 |
| 20260508014209 | 44 | 245 | 1.0 | 4.0 | 0.05 | 0.00 | 0.05 | 90 | 1012.0 |
| 20260508013710 | 44 | 245 | 2.0 | 4.0 | 0.04 | 0.00 | 0.04 | 89 | 1013.0 |
| 20260508013209 | 44 | 245 | 1.0 | 4.0 | 0.04 | 0.00 | 0.04 | 89 | 1013.0 |
| 20260508012710 | 44 | 245 | 4.0 | 4.0 | 0.04 | 0.00 | 0.04 | 88 | 1012.0 |
| 20260508012209 | 44 | 245 | 1.0 | 6.0 | 0.04 | 0.00 | 0.04 | 87 | 1012.0 |
| 20260508011709 | 44 | 245 | 1.0 | 9.0 | 0.04 | 0.00 | 0.04 | 87 | 1012.0 |
| 20260508011209 | 44 | 245 | 7.0 | 9.0 | 0.04 | 0.00 | 0.04 | 86 | 1012.0 |
| 20260508010709 | 45 | 245 | 5.0 | 7.0 | 0.01 | 0.00 | 0.02 | 84 | 1012.0 |
| 20260508010209 | 46 | 245 | 5.0 | 9.0 | 0.01 | 0.00 | 0.01 | 83 | 1012.0 |
| 20260508005710 | 46 | 245 | 1.0 | 5.0 | 0.00 | 0.00 | 0.00 | 80 | 1012.0 |
| 20260508005209 | 47 | 245 | 2.0 | 3.0 | 0.00 | 0.00 | 0.00 | 77 | 1012.0 |
| 20260508004710 | 47 | 245 | 3.0 | 5.0 | 0.00 | 0.00 | 0.00 | 75 | 1012.0 |
| 20260508004209 | 47 | 245 | 4.0 | 4.0 | 0.00 | 0.00 | 0.00 | 73 | 1012.0 |
| 20260508003709 | 46 | 245 | 0.0 | 2.0 | 0.00 | 0.00 | 0.00 | 74 | 1012.0 |
| 20260508003213 | 46 | 245 | 1.0 | 2.0 | 0.00 | 0.00 | 0.00 | 74 | 1011.0 |
| 20260508002710 | 46 | 245 | 0.0 | 2.0 | 0.00 | 0.00 | 0.00 | 75 | 1011.0 |
| 20260508002209 | 46 | 245 | 0.0 | 2.0 | 0.00 | 0.00 | 0.00 | 76 | 1011.0 |
| 20260508001709 | 46 | 245 | 1.0 | 4.0 | 0.00 | 0.00 | 0.00 | 75 | 1011.0 |
| 20260508001209 | 46 | 245 | 3.0 | 3.0 | 0.00 | 0.00 | 0.00 | 75 | 1011.0 |
| 20260508000709 | 46 | 245 | 4.0 | 5.0 | 0.00 | 0.00 | 0.00 | 74 | 1011.0 |
| 20260508000212 | 46 | 245 | 3.0 | 4.0 | 0.00 | 0.00 | 0.00 | 75 | 1012.0 |
| 20260507235709 | 46 | 245 | 6.0 | 6.0 | 0.00 | 0.00 | 0.00 | 73 | 1012.0 |
| 20260507235209 | 47 | 245 | 7.0 | 9.0 | 0.00 | 0.00 | 0.00 | 72 | 1012.0 |
| 20260507234709 | 48 | 245 | 5.0 | 10.0 | 0.00 | 0.00 | 0.00 | 70 | 1012.0 |
| 20260507234209 | 48 | 245 | 5.0 | 9.0 | 0.00 | 0.00 | 0.00 | 68 | 1011.0 |
| 20260507233709 | 49 | 245 | 6.0 | 6.0 | 0.00 | 0.00 | 0.00 | 66 | 1011.0 |
| 20260507233210 | 51 | 245 | 4.0 | 5.0 | 0.00 | 0.00 | 0.00 | 59 | 1011.0 |
| 20260507232710 | 51 | 245 | 2.0 | 4.0 | 0.00 | 0.00 | 0.00 | 57 | 1011.0 |
| 20260507232209 | 51 | 245 | 4.0 | 6.0 | 0.00 | 0.00 | 0.00 | 57 | 1011.0 |
| 20260507231709 | 51 | 245 | 3.0 | 7.0 | 0.00 | 0.00 | 0.00 | 56 | 1011.0 |
| 20260507231209 | 51 | 245 | 4.0 | 4.0 | 0.00 | 0.00 | 0.00 | 58 | 1011.0 |
| 20260507230710 | 51 | 245 | 4.0 | 4.0 | 0.00 | 0.00 | 0.00 | 57 | 1011.0 |
| 20260507230210 | 52 | 245 | 2.0 | 5.0 | 0.00 | 0.00 | 0.00 | 56 | 1011.0 |
| 20260507225710 | 51 | 245 | 0.0 | 4.0 | 0.00 | 0.00 | 0.00 | 57 | 1011.0 |
| 20260507225209 | 52 | 245 | 2.0 | 8.0 | 0.00 | 0.00 | 0.00 | 57 | 1011.0 |
| 20260507224710 | 52 | 245 | 1.0 | 4.0 | 0.00 | 0.00 | 0.00 | 58 | 1011.0 |
| 20260507224210 | 53 | 245 | 2.0 | 4.0 | 0.00 | 0.00 | 0.00 | 57 | 1011.0 |
| 20260507223709 | 54 | 245 | 1.0 | 4.0 | 0.00 | 0.00 | 0.00 | 54 | 1011.0 |
| 20260507223209 | 54 | 245 | 1.0 | 3.0 | 0.00 | 0.00 | 0.00 | 55 | 1011.0 |
| 20260507222710 | 55 | 245 | 3.0 | 5.0 | 0.00 | 0.00 | 0.00 | 52 | 1011.0 |
| 20260507222210 | 56 | 245 | 0.0 | 4.0 | 0.00 | 0.00 | 0.00 | 51 | 1011.0 |
| 20260507221710 | 56 | 245 | 0.0 | 4.0 | 0.00 | 0.00 | 0.00 | 58 | 1011.0 |
| 20260507221209 | 56 | 245 | 2.0 | 4.0 | 0.00 | 0.00 | 0.00 | 51 | 1011.0 |
| 20260507220710 | 55 | 245 | 2.0 | 5.0 | 0.00 | 0.00 | 0.00 | 54 | 1011.0 |
| 20260507220209 | 56 | 245 | 2.0 | 2.0 | 0.00 | 0.00 | 0.00 | 54 | 1011.0 |
| 20260507215709 | 55 | 245 | 1.0 | 2.0 | 0.00 | 0.00 | 0.00 | 53 | 1011.0 |
| 20260507215211 | 55 | 245 | 7.0 | 7.0 | 0.00 | 0.00 | 0.00 | 52 | 1011.0 |
| 20260507214709 | 55 | 245 | 1.0 | 3.0 | 0.00 | 0.00 | 0.00 | 51 | 1011.0 |
| 20260507214209 | 56 | 245 | 2.0 | 4.0 | 0.00 | 0.00 | 0.00 | 51 | 1011.0 |
| 20260507213710 | 56 | 245 | 1.0 | 4.0 | 0.00 | 0.00 | 0.00 | 51 | 1011.0 |
| 20260507213209 | 57 | 245 | 0.0 | 2.0 | 0.00 | 0.00 | 0.00 | 51 | 1011.0 |
| 20260507212709 | 56 | 245 | 1.0 | 2.0 | 0.00 | 0.00 | 0.00 | 54 | 1011.0 |
| 20260507212209 | 56 | 245 | 1.0 | 3.0 | 0.00 | 0.00 | 0.00 | 54 | 1011.0 |
| 20260507211709 | 54 | 245 | 2.0 | 3.0 | 0.00 | 0.00 | 0.00 | 58 | 1011.0 |
| 20260507211209 | 53 | 245 | 1.0 | 2.0 | 0.00 | 0.00 | 0.00 | 58 | 1011.0 |
| 20260507210713 | 52 | 245 | 2.0 | 4.0 | 0.00 | 0.00 | 0.00 | 62 | 1011.0 |
| 20260507210210 | 52 | 245 | 2.0 | 4.0 | 0.00 | 0.00 | 0.00 | 59 | 1011.0 |
| 20260507205709 | 52 | 245 | 1.0 | 2.0 | 0.00 | 0.00 | 0.00 | 59 | 1011.0 |
| 20260507205210 | 52 | 245 | 4.0 | 4.0 | 0.00 | 0.00 | 0.00 | 60 | 1011.0 |
| 20260507204709 | 53 | 245 | 3.0 | 4.0 | 0.00 | 0.00 | 0.00 | 59 | 1011.0 |
| 20260507204209 | 53 | 245 | 3.0 | 5.0 | 0.00 | 0.00 | 0.00 | 60 | 1011.0 |
| 20260507203710 | 52 | 245 | 2.0 | 4.0 | 0.00 | 0.00 | 0.00 | 58 | 1011.0 |
| 20260507203209 | 53 | 245 | 2.0 | 5.0 | 0.00 | 0.00 | 0.00 | 56 | 1011.0 |
| 20260507202709 | 54 | 245 | 4.0 | 6.0 | 0.00 | 0.00 | 0.00 | 54 | 1011.0 |
| 20260507202209 | 54 | 245 | 4.0 | 7.0 | 0.00 | 0.00 | 0.00 | 58 | 1011.0 |
| 20260507201710 | 53 | 245 | 2.0 | 8.0 | 0.00 | 0.00 | 0.00 | 62 | 1011.0 |
| 20260507201210 | 53 | 245 | 5.0 | 6.0 | 0.00 | 0.00 | 0.00 | 60 | 1011.0 |
| 20260507200710 | 53 | 245 | 2.0 | 6.0 | 0.00 | 0.00 | 0.00 | 58 | 1011.0 |
| 20260507200209 | 53 | 245 | 9.0 | 9.0 | 0.00 | 0.00 | 0.00 | 56 | 1011.0 |
| 20260507195710 | 55 | 245 | 1.0 | 3.0 | 0.00 | 0.00 | 0.00 | 52 | 1011.0 |
| 20260507195210 | 55 | 245 | 1.0 | 3.0 | 0.00 | 0.00 | 0.00 | 52 | 1011.0 |
| 20260507194709 | 56 | 245 | 3.0 | 6.0 | 0.00 | 0.00 | 0.00 | 46 | 1011.0 |
| 20260507194210 | 57 | 245 | 3.0 | 7.0 | 0.00 | 0.00 | 0.00 | 47 | 1011.0 |